• In India
  • List of Countries
  • For 7 days
  • Water Temperature
  • Satellite Maps
  • Weather Map
  • Weather Widgets
  • user-avatar
    Login

    Hourly Weather Drogomilowice

    Today, 21 February, Thursday

    Time Temperature Precipitation Wind Pressure Humidity
    00:00 +4°C° 0 mm 3 mps 753 mmHg 79%
    01:00 +4°C° 0 mm 3 mps 753 mmHg 79%
    02:00 +3°C° 0 mm 3 mps 753 mmHg 81%
    03:00 +3°C° 0 mm 3 mps 753 mmHg 82%
    04:00 +2°C° 0 mm 3 mps 753 mmHg 83%
    05:00 +2°C° 0 mm 3 mps 753 mmHg 83%
    06:00 +2°C° 0 mm 3 mps 753 mmHg 84%
    07:00 +2°C° 0 mm 3 mps 753 mmHg 84%
    08:00 +4°C° 0 mm 4 mps 753 mmHg 79%
    09:00 +5°C° 0 mm 4 mps 753 mmHg 74%
    10:00 +7°C° 0 mm 5 mps 754 mmHg 69%
    11:00 +7°C° 0.1 mm 5 mps 753 mmHg 68%
    12:00 +7°C° 0.1 mm 5 mps 753 mmHg 67%
    13:00 +7°C° 0.1 mm 5 mps 753 mmHg 66%
    14:00 +7°C° 0.2 mm 4 mps 753 mmHg 67%
    15:00 +7°C° 0.2 mm 4 mps 752 mmHg 69%
    16:00 +7°C° 0.2 mm 4 mps 752 mmHg 71%
    17:00 +6°C° 0 mm 4 mps 752 mmHg 73%
    18:00 +6°C° 0 mm 4 mps 752 mmHg 75%
    19:00 +6°C° 0 mm 5 mps 752 mmHg 77%
    20:00 +6°C° 0.1 mm 5 mps 752 mmHg 80%
    21:00 +5°C° 0.1 mm 6 mps 752 mmHg 83%
    22:00 +5°C° 0.1 mm 6 mps 752 mmHg 86%
    23:00 +5°C° 0.7 mm 6 mps 751 mmHg 87%

    Tomorrow, 22 February, Friday

    Time Temperature Precipitation Wind Pressure Humidity
    00:00 +5°C° 0.7 mm 6 mps 751 mmHg 89%
    01:00 +5°C° 0.7 mm 6 mps 751 mmHg 91%
    02:00 +5°C° 0.5 mm 6 mps 751 mmHg 92%
    03:00 +5°C° 0.5 mm 6 mps 751 mmHg 92%
    04:00 +5°C° 0.5 mm 6 mps 751 mmHg 92%
    05:00 +5°C° 0.3 mm 6 mps 752 mmHg 91%
    06:00 +4°C° 0.3 mm 6 mps 753 mmHg 89%
    07:00 +3°C° 0.3 mm 7 mps 754 mmHg 87%
    08:00 +2°C° 0 mm 6 mps 755 mmHg 84%
    09:00 +1°C° 0 mm 6 mps 757 mmHg 81%
    10:00 0°C° 0 mm 5 mps 758 mmHg 78%
    11:00 0°C° 0 mm 5 mps 759 mmHg 72%
    12:00 +1°C° 0 mm 4 mps 759 mmHg 66%
    13:00 +1°C° 0 mm 4 mps 760 mmHg 61%
    14:00 +1°C° 0 mm 4 mps 760 mmHg 58%
    15:00 +1°C° 0 mm 4 mps 761 mmHg 55%
    16:00 +1°C° 0 mm 4 mps 761 mmHg 52%
    17:00 +1°C° 0 mm 3 mps 762 mmHg 56%
    18:00 0°C° 0 mm 3 mps 763 mmHg 60%
    19:00 -1°C° 0 mm 2 mps 763 mmHg 64%
    20:00 -2°C° 0 mm 2 mps 764 mmHg 64%
    21:00 -2°C° 0 mm 2 mps 764 mmHg 65%
    22:00 -2°C° 0 mm 2 mps 765 mmHg 65%
    23:00 -2°C° 0 mm 2 mps 765 mmHg 64%

    Day after tomorrow, 23 February, Saturday

    Time Temperature Precipitation Wind Pressure Humidity
    00:00 -1°C° 0 mm 1 mps 765 mmHg 63%
    01:00 -1°C° 0 mm 1 mps 765 mmHg 62%
    02:00 -1°C° 0 mm 1 mps 765 mmHg 61%
    03:00 -1°C° 0 mm 1 mps 765 mmHg 59%
    04:00 -1°C° 0 mm 1 mps 765 mmHg 58%
    05:00 -1°C° 0 mm 1 mps 765 mmHg 58%
    06:00 -1°C° 0 mm 1 mps 765 mmHg 58%
    07:00 -2°C° 0 mm 1 mps 766 mmHg 57%
    08:00 -1°C° 0 mm 1 mps 766 mmHg 51%
    09:00 -2°C° 0 mm 2 mps 766 mmHg 45%
    10:00 -1°C° 0 mm 2 mps 766 mmHg 39%
    11:00 +1°C° 0 mm 2 mps 766 mmHg 35%
    12:00 +1°C° 0 mm 2 mps 766 mmHg 32%
    13:00 +2°C° 0 mm 2 mps 766 mmHg 28%
    14:00 +2°C° 0 mm 2 mps 766 mmHg 29%
    15:00 +3°C° 0 mm 1 mps 765 mmHg 29%
    16:00 +3°C° 0 mm 1 mps 765 mmHg 30%
    17:00 +2°C° 0 mm 1 mps 765 mmHg 33%
    18:00 +1°C° 0 mm 1 mps 765 mmHg 36%
    19:00 0°C° 0 mm 1 mps 765 mmHg 39%
    20:00 0°C° 0 mm 1 mps 765 mmHg 40%
    21:00 0°C° 0 mm 1 mps 765 mmHg 40%
    22:00 0°C° 0 mm 1 mps 765 mmHg 40%
    23:00 0°C° 0 mm 1 mps 765 mmHg 39%

    24 February, Sunday

    Time Temperature Precipitation Wind Pressure Humidity
    00:00 0°C° 0 mm 1 mps 765 mmHg 38%
    01:00 0°C° 0 mm 1 mps 764 mmHg 37%
    02:00 0°C° 0 mm 1 mps 764 mmHg 36%
    03:00 0°C° 0 mm 1 mps 764 mmHg 35%
    04:00 0°C° 0 mm 1 mps 763 mmHg 35%
    05:00 0°C° 0 mm 0 mps 763 mmHg 35%
    06:00 0°C° 0 mm 0 mps 763 mmHg 35%
    07:00 0°C° 0 mm 0 mps 763 mmHg 35%
    08:00 +2°C° 0 mm 1 mps 763 mmHg 33%
    09:00 +4°C° 0 mm 1 mps 763 mmHg 31%
    10:00 +5°C° 0 mm 1 mps 763 mmHg 30%
    11:00 +6°C° 0 mm 2 mps 763 mmHg 32%
    12:00 +7°C° 0 mm 2 mps 762 mmHg 34%
    13:00 +8°C° 0 mm 3 mps 762 mmHg 36%
    14:00 +8°C° 0 mm 2 mps 762 mmHg 42%
    15:00 +7°C° 0 mm 2 mps 761 mmHg 48%
    16:00 +7°C° 0 mm 2 mps 761 mmHg 54%
    17:00 +6°C° 0 mm 2 mps 761 mmHg 58%
    18:00 +4°C° 0 mm 3 mps 761 mmHg 62%
    19:00 +2°C° 0 mm 3 mps 761 mmHg 67%
    20:00 +2°C° 0 mm 3 mps 761 mmHg 68%
    21:00 +2°C° 0 mm 3 mps 761 mmHg 68%
    22:00 +1°C° 0 mm 4 mps 760 mmHg 69%
    23:00 +1°C° 0 mm 4 mps 760 mmHg 70%

    25 February, Monday

    Time Temperature Precipitation Wind Pressure Humidity
    00:00 +1°C° 0 mm 4 mps 760 mmHg 72%
    01:00 +1°C° 0 mm 4 mps 760 mmHg 73%
    02:00 +1°C° 0 mm 4 mps 760 mmHg 77%
    03:00 +1°C° 0 mm 4 mps 760 mmHg 82%
    04:00 +1°C° 0 mm 4 mps 760 mmHg 86%
    05:00 +1°C° 0.1 mm 4 mps 761 mmHg 89%
    06:00 +2°C° 0.1 mm 3 mps 761 mmHg 93%
    07:00 +2°C° 0.1 mm 3 mps 761 mmHg 96%
    08:00 +3°C° 0 mm 3 mps 762 mmHg 93%
    09:00 +3°C° 0 mm 3 mps 762 mmHg 89%
    10:00 +4°C° 0 mm 3 mps 763 mmHg 86%
    11:00 +5°C° 0 mm 3 mps 763 mmHg 78%
    12:00 +7°C° 0 mm 3 mps 763 mmHg 70%
    13:00 +7°C° 0 mm 4 mps 763 mmHg 62%
    14:00 +8°C° 0 mm 3 mps 763 mmHg 60%
    15:00 +8°C° 0 mm 3 mps 763 mmHg 58%
    16:00 +8°C° 0 mm 3 mps 763 mmHg 57%
    17:00 +7°C° 0 mm 3 mps 763 mmHg 61%
    18:00 +6°C° 0 mm 2 mps 763 mmHg 65%
    19:00 +4°C° 0 mm 2 mps 763 mmHg 70%
    20:00 +4°C° 0 mm 2 mps 763 mmHg 71%
    21:00 +4°C° 0 mm 2 mps 763 mmHg 72%
    22:00 +3°C° 0 mm 2 mps 762 mmHg 74%
    23:00 +3°C° 0 mm 2 mps 762 mmHg 74%

    26 February, Tuesday

    Time Temperature Precipitation Wind Pressure Humidity
    00:00 +3°C° 0 mm 2 mps 762 mmHg 75%
    01:00 +2°C° 0 mm 2 mps 761 mmHg 76%
    02:00 +2°C° 0 mm 2 mps 761 mmHg 76%
    03:00 +2°C° 0 mm 2 mps 760 mmHg 75%
    04:00 +1°C° 0 mm 3 mps 759 mmHg 75%
    05:00 +1°C° 0 mm 3 mps 759 mmHg 74%
    06:00 +1°C° 0 mm 3 mps 759 mmHg 73%
    07:00 +1°C° 0 mm 3 mps 758 mmHg 72%
    08:00 +3°C° 0 mm 4 mps 758 mmHg 67%
    09:00 +3°C° 0 mm 5 mps 758 mmHg 62%
    10:00 +6°C° 0 mm 5 mps 758 mmHg 58%
    11:00 +7°C° 0 mm 6 mps 757 mmHg 56%
    12:00 +9°C° 0 mm 6 mps 756 mmHg 54%
    13:00 +10°C° 0 mm 6 mps 756 mmHg 52%
    14:00 +10°C° 0 mm 6 mps 755 mmHg 53%
    15:00 +10°C° 0 mm 7 mps 755 mmHg 54%
    16:00 +10°C° 0 mm 7 mps 754 mmHg 55%
    17:00 +9°C° 0 mm 6 mps 754 mmHg 60%
    18:00 +8°C° 0 mm 6 mps 754 mmHg 64%
    19:00 +7°C° 0 mm 6 mps 755 mmHg 69%
    20:00 +7°C° 0 mm 6 mps 754 mmHg 71%
    21:00 +5°C° 0 mm 6 mps 754 mmHg 73%
    22:00 +5°C° 0 mm 6 mps 754 mmHg 76%
    23:00 +6°C° 0 mm 5 mps 755 mmHg 78%
    Show more